カタログに戻る

SL-14 DEB

運用中PO
NORAD 26011·DEBRIS·🇷🇺 Russia

打ち上げ Sep 28, 1991 から Plesetsk Cosmodrome

Loading…

次のパス (今後24時間)

TLE

最新Source: Space-Track

元期: Sep 14, 2026, 13:34 UTC

1 26011U 91068W   26257.56541595  .00000294  00000-0  15962-2 0  9996
2 26011  82.4281 189.7676 0058801  59.7785 115.7540 12.61128947239024

AllMySatでSL-14 DEBをリアルタイム追跡

Download on the App Store